Home > Weather > Lakewood > Past weeks

Flag for U.S.A. Weather for the Past 2 Weeks in Lakewood, New Jersey, U.S.A.

Now
25 °F

Mostly cloudy.


Feels Like: 9 °F
Forecast: 19 / 26 °F
Wind: 24 mph from Northwest

Location: Belmar-Farmdale

Current Time: Feb 11, 2016 at 5:04:17 PM

Latest Report: Feb 11, 2016 at 4:15 PM


Visibility: 10 mi

Pressure: 29.99 "Hg

Humidity: 33%

Dew point: 0 °F

Location of LakewoodLocation

Historic Weather in Lakewood — Graph

°F

Lakewood Temperature Yesterday

Maximum temperature yesterday: 37 °F (at 2:15 PM)
Minimum temperature yesterday: 30 °F (at 12:15 AM)
Average temperature yesterday: 32 °F

High & Low Weather Summary for the Past Weeks

 TemperatureHumidityPressure
High59 °F (Jan 31, 2:35 PM)82% (Feb 3, 4:35 PM)30.44 "Hg (Feb 3, 4:35 PM)
Low19 °F (Jan 28, 7:15 AM)31% (Feb 11, 1:55 PM)29.48 "Hg (Jan 29, 7:15 AM)
Average37 °F59%29.95 "Hg
* Reported Jan 27 3:15 PM — Feb 11 3:55 PM, Lakewood, Weather by CustomWeather, © 2016

Note: Actual official high and low records may vary slightly from our data, if they occured in-between our weather recording intervals... More about our weather records

Advertising

Lakewood Weather History for the Previous 24 Hours

 ConditionsComfort  
Time TempWeatherWind HumidityBarometerVisibility
3:55 PM
Thu, Feb 11
25 °FOvercast.24 mph33%29.98 "Hg10 mi
3:35 PM25 °FMostly cloudy.23 mph33%29.97 "Hg10 mi
3:15 PM25 °FMostly cloudy.17 mph33%29.96 "Hg10 mi
2:55 PM25 °FOvercast.22 mph33%29.95 "Hg10 mi
2:35 PM25 °FOvercast.17 mph33%29.94 "Hg10 mi
2:15 PM27 °FOvercast.24 mph31%29.94 "Hg10 mi
1:55 PM27 °FOvercast.21 mph31%29.93 "Hg10 mi
1:35 PM27 °FPartly sunny.24 mph33%29.93 "Hg10 mi
1:15 PM27 °FOvercast.16 mph33%29.93 "Hg10 mi
12:55 PM25 °FBroken clouds.16 mph36%29.93 "Hg10 mi
12:35 PM25 °FPartly sunny.25 mph36%29.94 "Hg10 mi
12:15 PM27 °FScattered clouds.24 mph39%29.94 "Hg10 mi
11:55 AM25 °FBroken clouds.17 mph46%29.94 "Hg10 mi
11:35 AM21 °FCloudy.16 mph49%29.94 "Hg1 mi
11:15 AM25 °FBroken clouds.21 mph39%29.94 "Hg10 mi
10:55 AM25 °FMore clouds than sun.21 mph36%29.95 "Hg10 mi
10:35 AM25 °FMostly cloudy.18 mph42%29.95 "Hg10 mi
10:15 AM25 °FBroken clouds.22 mph39%29.95 "Hg10 mi
9:55 AM25 °FPassing clouds.17 mph39%29.94 "Hg10 mi
9:35 AM25 °FPassing clouds.21 mph36%29.94 "Hg10 mi
9:15 AM25 °FScattered clouds.18 mph36%29.94 "Hg10 mi
8:55 AM25 °FPassing clouds.15 mph36%29.94 "Hg10 mi
8:35 AM25 °FPassing clouds.16 mph36%29.93 "Hg10 mi
8:15 AM23 °FSunny.15 mph42%29.92 "Hg10 mi
7:55 AM23 °FSunny.14 mph42%29.91 "Hg10 mi
7:35 AM23 °FSunny.12 mph39%29.91 "Hg10 mi
7:15 AM21 °FSunny.12 mph42%29.90 "Hg10 mi
6:55 AM21 °FSunny.9 mph42%29.89 "Hg10 mi
6:35 AM23 °FClear.10 mph36%29.88 "Hg10 mi
6:15 AM23 °FClear.14 mph36%29.87 "Hg10 mi
5:55 AM23 °FPassing clouds.22 mph39%29.86 "Hg10 mi
5:35 AM25 °FOvercast.18 mph36%29.85 "Hg10 mi
5:15 AM25 °FOvercast.18 mph36%29.84 "Hg10 mi
4:55 AM25 °FOvercast.16 mph39%29.83 "Hg10 mi
4:35 AM25 °FOvercast.12 mph50%29.82 "Hg10 mi
4:15 AM25 °FOvercast.16 mph50%29.81 "Hg10 mi
3:55 AM25 °FOvercast.13 mph54%29.80 "Hg10 mi
3:35 AM25 °FOvercast.15 mph54%29.80 "Hg10 mi
3:15 AM25 °FMostly cloudy.13 mph59%29.80 "Hg10 mi
2:55 AM25 °FMostly cloudy.13 mph59%29.80 "Hg5 mi
2:35 AM25 °FOvercast.13 mph63%29.80 "Hg3 mi
2:15 AM25 °FMostly cloudy.20 mph63%29.80 "Hg4 mi
1:55 AM27 °FMostly cloudy.16 mph54%29.79 "Hg5 mi
1:35 AM27 °FMostly cloudy.18 mph50%29.78 "Hg10 mi
1:15 AM28 °FOvercast.18 mph47%29.78 "Hg10 mi
12:55 AM28 °FOvercast.10 mph47%29.78 "Hg10 mi
12:35 AM28 °FOvercast.15 mph47%29.77 "Hg10 mi
12:15 AM28 °FOvercast.16 mph47%29.77 "Hg10 mi
11:35 PM
Wed, Feb 10
30 °FOvercast.15 mph43%29.77 "Hg10 mi
11:15 PM30 °FOvercast.15 mph43%29.77 "Hg10 mi
10:55 PM30 °FOvercast.14 mph43%29.77 "Hg10 mi
10:35 PM30 °FOvercast.16 mph43%29.77 "Hg10 mi
10:15 PM30 °FOvercast.15 mph47%29.76 "Hg10 mi
9:55 PM30 °FPassing clouds.10 mph47%29.76 "Hg10 mi
9:15 PM30 °FClear.10 mph47%29.76 "Hg10 mi
8:55 PM30 °FClear.10 mph47%29.76 "Hg10 mi
8:35 PM30 °FClear.9 mph47%29.76 "Hg10 mi
7:55 PM30 °FClear.10 mph47%29.76 "Hg10 mi
7:35 PM30 °FClear.10 mph47%29.75 "Hg10 mi
6:55 PM32 °FClear.15 mph47%29.75 "Hg10 mi
6:15 PM32 °FPassing clouds.10 mph44%29.74 "Hg10 mi
5:55 PM34 °FPassing clouds.13 mph41%29.74 "Hg10 mi
5:35 PM34 °FPassing clouds.9 mph44%29.72 "Hg10 mi
Weather by CustomWeather, © 2016

See weather overviewHow to use our weather pages